This is the latest recevied weather packets stored in our database for station/object N0MPM-4. If no packets are shown the sender has not sent any weather packets the latest 10 day(s).
| Time | Temp. | Humidity | Pressure | Rain* | Wind** | Luminosity | Snow |
|---|---|---|---|---|---|---|---|
| 1787843579 | 22.78° C | 75% | 1018.3 hPa | 0 mm | - | - | - |
| 1787843402 | 22.22° C | 78% | 1018.4 hPa | 0 mm | - | - | - |
| 1787843399 | 22.78° C | 76% | 1018.3 hPa | 0 mm | - | - | - |
| 1787843279 | 22.78° C | 76% | 1018.3 hPa | 0 mm | - | - | - |
| 1787843043 | 22.78° C | 76% | 1018.4 hPa | 0 mm | - | - | - |
| 1787842978 | 22.78° C | 76% | 1018.4 hPa | 0 mm | - | - | - |
| 1787842679 | 22.22° C | 78% | 1018.4 hPa | 0 mm | - | - | - |
| 1787842379 | 21.67° C | 78% | 1018.4 hPa | 0 mm | - | - | - |
| 1787842320 | 21.67° C | 78% | 1018.3 hPa | 0 mm | - | - | - |
| 1787842228 | 21.67° C | 77% | 1018.3 hPa | 0 mm | - | - | - |
| 1787842079 | 21.67° C | 78% | 1018.3 hPa | 0 mm | - | - | - |
| 1787841960 | 21.67° C | 77% | 1018.3 hPa | 0 mm | - | - | - |
| 1787841779 | 21.67° C | 78% | 1018.4 hPa | 0 mm | - | - | - |
| 1787841600 | 21.11° C | 78% | 1018.3 hPa | 0 mm | - | - | - |
| 1787841479 | 21.11° C | 78% | 1018.3 hPa | 0 mm | - | - | - |
| 1787841240 | 21.11° C | 77% | 1018.3 hPa | 0 mm | - | - | - |
| 1787841179 | 21.11° C | 77% | 1018.3 hPa | 0 mm | - | - | - |
| 1787840879 | 20.56° C | 77% | 1018.3 hPa | 0 mm | - | - | - |
| 1787840671 | 20.56° C | 77% | 1018.4 hPa | 0 mm | - | - | - |
| 1787840579 | 20.56° C | 77% | 1018.3 hPa | 0 mm | - | - | - |
| 1787840520 | 20.56° C | 77% | 1018.4 hPa | 0 mm | - | - | - |
| 1787840288 | 20° C | 72% | 1018.3 hPa | 0 mm | - | - | - |
| 1787840279 | 20.56° C | 73% | 1018.4 hPa | 0 mm | - | - | - |
| 1787840160 | 20° C | 72% | 1018.3 hPa | 0 mm | - | - | - |
| 1787839996 | 20° C | 74% | 1018.4 hPa | 0 mm | - | - | - |
* Rain latest hour (hover to see other rain measurements)
** Current wind speed in m/s (hover to see current wind gust speed)